Terminal Aerodrome Forecast
Issued by NWS Goodland, KS

Home | Current Version | Previous Version | Text Only | Print | Product List | Glossary On
Versions: 1 2 3 4 5 6 7 8 9 10 11 12 13 14 15
000
FTUS43 KGLD 031950 AAA
TAFGLD
TAF AMD
KGLD 031950Z 0320/0418 19012G18KT P6SM FEW090 BKN150
     FM040200 16010KT P6SM VCTS FEW090CB BKN120
     FM040700 20008KT P6SM BKN120
     FM041000 24007KT P6SM FEW100=

USA.gov is the U.S. government's official web portal to all federal, state and local government web resources and services.